Track IRIDIUM 163 now! 10-day predictions IRIDIUM 163 is classified as:
1 43575U 18061G 22223.72578217 .00000147 00000-0 45398-4 0 9995 2 43575 86.3948 284.0493 0002522 100.1386 260.0095 14.34218553211938